THYNA LTFM-LOWW

Flight info

Callsign THYNA
Flight time 1h 23m
Altitude 38000
Route TUDBU1D/35L TUDBU DCT ETUBA DCT APROB DCT BALUX DCT TORNO DCT NATEX NATEX2W
Aircraft A20N/M-SDE2E3FGHIRWXY/LB1

Departure

Time 2026-05-04 19:22
Airport İstanbul Airport (LTFM)

Arrival

Time 2026-05-04 20:45
Airport Vienna International Airport (LOWW)
Time Latitude Longitude Altitude Speed Heading
2026-05-04 18:54 41.26650 28.73745 313 ft 0 kts 269°
2026-05-04 19:08 41.26650 28.73788 313 ft 5 kts 257°
2026-05-04 19:08 41.26654 28.73844 311 ft 8 kts 288°
2026-05-04 19:09 41.26626 28.73877 312 ft 0 kts
2026-05-04 19:13 41.26640 28.73878 311 ft 4 kts
2026-05-04 19:14 41.26675 28.73877 312 ft 7 kts 358°
2026-05-04 19:14 41.26720 28.73876 313 ft 0 kts 358°
2026-05-04 19:14 41.26726 28.73875 313 ft 2 kts 355°
2026-05-04 19:14 41.26746 28.73873 313 ft 0 kts 356°
2026-05-04 19:16 41.26754 28.73872 313 ft 3 kts 357°
2026-05-04 19:16 41.26786 28.73871 311 ft 6 kts 357°
2026-05-04 19:16 41.26838 28.73868 313 ft 9 kts 358°
2026-05-04 19:16 41.26909 28.73866 313 ft 12 kts 359°
2026-05-04 19:17 41.27006 28.73867 311 ft 16 kts 357°
2026-05-04 19:17 41.27045 28.73773 310 ft 13 kts 268°
2026-05-04 19:17 41.27045 28.73644 310 ft 15 kts 270°
2026-05-04 19:17 41.27043 28.73494 310 ft 17 kts 268°
2026-05-04 19:18 41.27040 28.73326 310 ft 19 kts 268°
2026-05-04 19:18 41.27039 28.73140 306 ft 22 kts 269°
2026-05-04 19:18 41.27024 28.73004 307 ft 8 kts 231°
2026-05-04 19:18 41.26972 28.72989 309 ft 9 kts 178°
2026-05-04 19:19 41.26903 28.72992 308 ft 11 kts 178°
2026-05-04 19:19 41.26842 28.72995 309 ft 0 kts 178°
2026-05-04 19:19 41.26834 28.72994 309 ft 4 kts 182°
2026-05-04 19:20 41.26776 28.72992 309 ft 13 kts 180°
2026-05-04 19:20 41.26716 28.72921 309 ft 13 kts 262°
2026-05-04 19:20 41.26714 28.72785 309 ft 15 kts 269°
2026-05-04 19:20 41.26712 28.72641 310 ft 16 kts 269°
2026-05-04 19:21 41.26724 28.72501 309 ft 11 kts 318°
2026-05-04 19:21 41.26750 28.72508 308 ft 5 kts 18°
2026-05-04 19:21 41.26803 28.72512 307 ft 15 kts 360°
2026-05-04 19:21 41.27219 28.72503 295 ft 102 kts 359°
2026-05-04 19:22 41.28143 28.72491 286 ft 159 kts 359°
2026-05-04 19:22 41.29285 28.72498 754 ft 167 kts 357°
2026-05-04 19:22 41.30524 28.72466 1276 ft 192 kts 358°
2026-05-04 19:22 41.31926 28.72416 2116 ft 210 kts 359°
2026-05-04 19:23 41.33428 28.72234 3099 ft 226 kts 346°
2026-05-04 19:23 41.34850 28.71214 4095 ft 244 kts 321°
2026-05-04 19:23 41.36091 28.69495 4713 ft 273 kts 316°
2026-05-04 19:23 41.37444 28.67484 4967 ft 310 kts 315°
2026-05-04 19:24 41.38951 28.65203 5049 ft 346 kts 314°
2026-05-04 19:24 41.40609 28.62667 5053 ft 376 kts 314°
2026-05-04 19:24 41.42278 28.60078 5657 ft 365 kts 314°
2026-05-04 19:24 41.43890 28.57511 6793 ft 360 kts 313°
2026-05-04 19:25 41.45486 28.54913 7602 ft 364 kts 313°
2026-05-04 19:25 41.47125 28.52405 8795 ft 352 kts 317°
2026-05-04 19:25 41.48774 28.50065 10186 ft 340 kts 318°
2026-05-04 19:25 41.50365 28.47809 11522 ft 328 kts 318°
2026-05-04 19:26 41.51915 28.45577 12526 ft 330 kts 318°
2026-05-04 19:26 41.53471 28.43300 13313 ft 335 kts 317°
2026-05-04 19:26 41.55046 28.40963 14082 ft 340 kts 317°
2026-05-04 19:26 41.56632 28.38592 14810 ft 344 kts 317°
2026-05-04 19:27 41.58232 28.36188 15515 ft 349 kts 317°
2026-05-04 19:27 41.59853 28.33747 16214 ft 353 kts 317°
2026-05-04 19:27 41.61492 28.31273 16894 ft 358 kts 317°
2026-05-04 19:27 41.63152 28.28765 17577 ft 363 kts 317°
2026-05-04 19:28 41.64831 28.26226 18253 ft 367 kts 317°
2026-05-04 19:28 41.66532 28.23651 18864 ft 370 kts 317°
2026-05-04 19:28 41.68242 28.21062 19501 ft 373 kts 317°
2026-05-04 19:28 41.69968 28.18448 20125 ft 376 kts 317°
2026-05-04 19:29 41.71705 28.15816 20731 ft 379 kts 317°
2026-05-04 19:29 41.73455 28.13161 21335 ft 382 kts 317°
2026-05-04 19:29 41.75220 28.10482 21938 ft 385 kts 317°
2026-05-04 19:29 41.76998 28.07780 22533 ft 388 kts 317°
2026-05-04 19:30 41.78792 28.05051 23120 ft 392 kts 317°
2026-05-04 19:30 41.80596 28.02303 23688 ft 395 kts 316°
2026-05-04 19:30 41.82417 27.99527 24159 ft 398 kts 316°
2026-05-04 19:30 41.84251 27.96728 24637 ft 401 kts 316°
2026-05-04 19:31 41.86100 27.93904 25094 ft 404 kts 316°
2026-05-04 19:31 41.87960 27.91061 25544 ft 408 kts 316°
2026-05-04 19:31 41.89839 27.88184 25970 ft 411 kts 316°
2026-05-04 19:31 41.91728 27.85289 26421 ft 414 kts 316°
2026-05-04 19:32 41.93629 27.82373 26855 ft 417 kts 316°
2026-05-04 19:32 41.94897 27.80426 27138 ft 419 kts 315°
2026-05-04 19:32 41.96824 27.77467 27549 ft 422 kts 315°
2026-05-04 19:32 41.98819 27.74572 27940 ft 423 kts 319°
2026-05-04 19:33 42.00900 27.71762 28323 ft 425 kts 319°
2026-05-04 19:33 42.03007 27.68956 28707 ft 428 kts 319°
2026-05-04 19:33 42.05120 27.66120 29062 ft 431 kts 319°
2026-05-04 19:33 42.07927 27.62308 29508 ft 435 kts 318°
2026-05-04 19:34 42.09367 27.60340 29742 ft 437 kts 318°
2026-05-04 19:34 42.11498 27.57416 30057 ft 440 kts 318°
2026-05-04 19:34 42.13646 27.54462 30355 ft 442 kts 318°
2026-05-04 19:34 42.15804 27.51491 30665 ft 444 kts 317°
2026-05-04 19:35 42.17969 27.48507 30986 ft 446 kts 317°
2026-05-04 19:35 42.20138 27.45515 31329 ft 447 kts 317°
2026-05-04 19:35 42.22311 27.42514 31729 ft 447 kts 317°
2026-05-04 19:35 42.24478 27.39516 32144 ft 446 kts 317°
2026-05-04 19:36 42.26642 27.36522 32558 ft 445 kts 317°
2026-05-04 19:36 42.28767 27.33578 32961 ft 444 kts 317°
2026-05-04 19:36 42.30950 27.30552 33353 ft 443 kts 317°
2026-05-04 19:36 42.33070 27.27609 33713 ft 442 kts 317°
2026-05-04 19:37 42.35243 27.24589 34094 ft 442 kts 317°
2026-05-04 19:37 42.37354 27.21654 34394 ft 441 kts 317°
2026-05-04 19:37 42.39488 27.18683 34715 ft 440 kts 317°
2026-05-04 19:37 42.41611 27.15724 35019 ft 438 kts 317°
2026-05-04 19:38 42.43734 27.12762 35324 ft 437 kts 317°
2026-05-04 19:38 42.45849 27.09808 35599 ft 437 kts 316°
2026-05-04 19:38 42.47961 27.06856 35897 ft 436 kts 316°
2026-05-04 19:38 42.50063 27.03915 36172 ft 434 kts 316°
2026-05-04 19:39 42.52165 27.00970 36438 ft 434 kts 316°
2026-05-04 19:39 42.54257 26.98036 36697 ft 433 kts 316°
2026-05-04 19:39 42.56348 26.95100 36939 ft 432 kts 316°
2026-05-04 19:39 42.58434 26.92170 37203 ft 431 kts 316°
2026-05-04 19:40 42.60513 26.89244 37437 ft 430 kts 316°
2026-05-04 19:40 42.62589 26.86321 37660 ft 430 kts 316°
2026-05-04 19:40 42.64660 26.83402 37875 ft 429 kts 316°
2026-05-04 19:40 42.66730 26.80481 38041 ft 429 kts 316°
2026-05-04 19:41 42.68796 26.77564 38057 ft 428 kts 316°
2026-05-04 19:41 42.72914 26.71737 38058 ft 427 kts 316°
2026-05-04 19:42 42.77032 26.65901 38059 ft 428 kts 315°
2026-05-04 19:42 42.81150 26.60054 38058 ft 428 kts 315°
2026-05-04 19:43 42.85345 26.54318 38059 ft 427 kts 317°
2026-05-04 19:43 42.89612 26.48665 38059 ft 428 kts 317°
2026-05-04 19:44 42.93858 26.42990 38062 ft 428 kts 317°
2026-05-04 19:44 42.98107 26.37274 38059 ft 428 kts 317°
2026-05-04 19:45 43.02320 26.31591 38054 ft 429 kts 317°
2026-05-04 19:45 43.06592 26.25817 38057 ft 429 kts 317°
2026-05-04 19:46 43.10802 26.20115 38058 ft 429 kts 316°
2026-05-04 19:46 43.15041 26.14363 38051 ft 429 kts 316°
2026-05-04 19:47 43.19274 26.08607 38049 ft 429 kts 316°
2026-05-04 19:47 43.23503 26.02844 38051 ft 429 kts 316°
2026-05-04 19:48 43.27731 25.97070 38055 ft 429 kts 316°
2026-05-04 19:48 43.31955 25.91290 38049 ft 429 kts 316°
2026-05-04 19:49 43.36176 25.85503 38057 ft 429 kts 316°
2026-05-04 19:49 43.40394 25.79707 38052 ft 428 kts 316°
2026-05-04 19:50 43.44607 25.73906 38062 ft 429 kts 316°
2026-05-04 19:50 43.48821 25.68092 38062 ft 429 kts 316°
2026-05-04 19:51 43.53036 25.62264 38059 ft 429 kts 316°
2026-05-04 19:51 43.57248 25.56428 38069 ft 430 kts 316°
2026-05-04 19:52 43.61462 25.50578 38054 ft 430 kts 316°
2026-05-04 19:52 43.65672 25.44719 38055 ft 430 kts 316°
2026-05-04 19:53 43.69887 25.38842 38071 ft 430 kts 316°
2026-05-04 19:53 43.74098 25.32958 38063 ft 431 kts 316°
2026-05-04 19:54 43.78307 25.27065 38058 ft 431 kts 316°
2026-05-04 19:54 43.82518 25.21156 38057 ft 431 kts 316°
2026-05-04 19:55 43.86697 25.15279 38063 ft 431 kts 316°
2026-05-04 19:55 43.90935 25.09307 38069 ft 431 kts 315°
2026-05-04 19:56 43.95112 25.03408 38062 ft 432 kts 315°
2026-05-04 19:56 43.99194 24.97301 38067 ft 432 kts 312°
2026-05-04 19:57 44.03157 24.91025 38064 ft 432 kts 313°
2026-05-04 19:57 44.07132 24.84763 38063 ft 432 kts 313°
2026-05-04 19:58 44.11101 24.78491 38057 ft 432 kts 313°
2026-05-04 19:58 44.15064 24.72207 38061 ft 432 kts 313°
2026-05-04 19:59 44.19016 24.65926 38064 ft 431 kts 313°
2026-05-04 19:59 44.22966 24.59627 38062 ft 431 kts 312°
2026-05-04 20:00 44.26266 24.54353 38064 ft 431 kts 312°
2026-05-04 20:00 44.30849 24.47011 38065 ft 431 kts 312°
2026-05-04 20:01 44.34783 24.40694 38068 ft 431 kts 312°
2026-05-04 20:01 44.38715 24.34368 38064 ft 431 kts 312°
2026-05-04 20:02 44.42647 24.28026 38061 ft 432 kts 312°
2026-05-04 20:02 44.46578 24.21671 38061 ft 432 kts 312°
2026-05-04 20:03 44.50511 24.15300 38060 ft 432 kts 312°
2026-05-04 20:03 44.54442 24.08917 38058 ft 432 kts 312°
2026-05-04 20:04 44.58374 24.02522 38060 ft 433 kts 313°
2026-05-04 20:04 44.61640 23.97219 38061 ft 432 kts 312°
2026-05-04 20:05 44.66224 23.89737 38066 ft 432 kts 312°
2026-05-04 20:05 44.70136 23.83324 38070 ft 432 kts 312°
2026-05-04 20:06 44.76984 23.72065 38067 ft 432 kts 312°
2026-05-04 20:06 44.92572 23.46266 38073 ft 432 kts 311°
2026-05-04 20:07 45.08085 23.20355 38083 ft 432 kts 311°
2026-05-04 20:07 45.23542 22.94301 38110 ft 431 kts 311°
2026-05-04 20:08 45.38873 22.68222 38129 ft 430 kts 311°
2026-05-04 20:08 45.48226 22.52193 38123 ft 430 kts 311°
2026-05-04 20:09 45.52036 22.45638 38122 ft 429 kts 311°
2026-05-04 20:09 45.66395 22.20795 38103 ft 429 kts 311°
2026-05-04 20:10 45.81489 21.94439 38096 ft 428 kts 311°
2026-05-04 20:10 45.93986 21.72432 38083 ft 427 kts 310°
2026-05-04 20:11 46.11473 21.41342 38074 ft 427 kts 310°
2026-05-04 20:11 46.22473 21.21604 38074 ft 427 kts 310°
2026-05-04 20:12 46.26189 21.14904 38072 ft 427 kts 310°
2026-05-04 20:12 46.29901 21.08195 38073 ft 427 kts 310°
2026-05-04 20:13 46.33611 21.01474 38072 ft 427 kts 310°
2026-05-04 20:13 46.37318 20.94742 38065 ft 427 kts 310°
2026-05-04 20:14 46.41019 20.88006 38065 ft 428 kts 309°
2026-05-04 20:14 46.44722 20.81249 38061 ft 428 kts 309°
2026-05-04 20:15 46.48420 20.74484 38060 ft 428 kts 309°
2026-05-04 20:15 46.52120 20.67699 38056 ft 429 kts 309°
2026-05-04 20:16 46.55817 20.60905 38054 ft 429 kts 309°
2026-05-04 20:16 46.59512 20.54103 38055 ft 429 kts 309°
2026-05-04 20:17 46.65863 20.42377 38054 ft 429 kts 309°
2026-05-04 20:17 46.80591 20.14943 38056 ft 429 kts 308°
2026-05-04 20:18 46.95229 19.87410 38076 ft 429 kts 308°
2026-05-04 20:18 47.09782 19.59765 38065 ft 427 kts 308°
2026-05-04 20:19 47.21797 19.36728 38048 ft 427 kts 308°
2026-05-04 20:19 47.29003 19.22817 38046 ft 427 kts 307°
2026-05-04 20:20 47.32565 19.15831 38043 ft 427 kts 304°
2026-05-04 20:20 47.35550 19.08266 38048 ft 428 kts 296°
2026-05-04 20:21 47.38041 19.00298 38044 ft 428 kts 295°
2026-05-04 20:21 47.41802 18.88348 38045 ft 428 kts 295°
2026-05-04 20:22 47.44290 18.80371 38025 ft 427 kts 295°
2026-05-04 20:22 47.45523 18.76404 37741 ft 424 kts 295°
2026-05-04 20:22 47.46750 18.72449 37225 ft 423 kts 295°
2026-05-04 20:23 47.47973 18.68502 37053 ft 424 kts 295°
2026-05-04 20:23 47.49208 18.64510 37026 ft 429 kts 295°
2026-05-04 20:23 47.56174 18.38707 35880 ft 425 kts 288°
2026-05-04 20:24 47.58143 18.29479 34298 ft 428 kts 289°
2026-05-04 20:24 47.59038 18.25268 33499 ft 429 kts 289°
2026-05-04 20:24 47.59935 18.21042 32625 ft 431 kts 288°
2026-05-04 20:24 47.60836 18.16785 31714 ft 435 kts 288°
2026-05-04 20:25 47.61743 18.12488 30799 ft 439 kts 288°
2026-05-04 20:25 47.62652 18.08165 29959 ft 440 kts 288°
2026-05-04 20:25 47.63559 18.03843 29261 ft 436 kts 288°
2026-05-04 20:25 47.64452 17.99572 28613 ft 431 kts 288°
2026-05-04 20:26 47.65334 17.95352 27959 ft 427 kts 288°
2026-05-04 20:26 47.66209 17.91154 27301 ft 424 kts 288°
2026-05-04 20:26 47.67074 17.86999 26662 ft 420 kts 287°
2026-05-04 20:26 47.67931 17.82879 26054 ft 416 kts 287°
2026-05-04 20:27 47.68779 17.78790 25461 ft 413 kts 287°
2026-05-04 20:27 47.69618 17.74734 24875 ft 409 kts 287°
2026-05-04 20:27 47.70449 17.70711 24170 ft 407 kts 287°
2026-05-04 20:27 47.71273 17.66719 23317 ft 402 kts 287°
2026-05-04 20:28 47.72085 17.62773 22370 ft 397 kts 287°
2026-05-04 20:28 47.72886 17.58881 21449 ft 392 kts 286°
2026-05-04 20:28 47.73675 17.55030 20558 ft 387 kts 285°
2026-05-04 20:28 47.74247 17.51146 19702 ft 382 kts 277°
2026-05-04 20:29 47.74434 17.47237 18738 ft 380 kts 268°
2026-05-04 20:29 47.74249 17.43324 17597 ft 380 kts 262°
2026-05-04 20:29 47.73958 17.39419 16424 ft 381 kts 262°
2026-05-04 20:29 47.73678 17.35495 15291 ft 381 kts 262°
2026-05-04 20:30 47.73402 17.31587 14203 ft 380 kts 262°
2026-05-04 20:30 47.73126 17.27686 13069 ft 379 kts 262°
2026-05-04 20:30 47.72849 17.23807 11920 ft 377 kts 262°
2026-05-04 20:30 47.72571 17.19951 10812 ft 375 kts 262°
2026-05-04 20:31 47.72294 17.16119 9730 ft 372 kts 262°
2026-05-04 20:31 47.72017 17.12312 8578 ft 369 kts 262°
2026-05-04 20:31 47.72103 17.08514 7461 ft 370 kts 279°
2026-05-04 20:31 47.73031 17.04984 6680 ft 365 kts 300°
2026-05-04 20:32 47.74688 17.02272 6310 ft 348 kts 322°
2026-05-04 20:32 47.76749 17.00581 6071 ft 328 kts 334°
2026-05-04 20:32 47.78789 16.99300 5857 ft 308 kts 335°
2026-05-04 20:32 47.80702 16.98100 5670 ft 289 kts 334°
2026-05-04 20:33 47.82476 16.96908 5504 ft 271 kts 332°
2026-05-04 20:33 47.84123 16.95730 5344 ft 254 kts 330°
2026-05-04 20:33 47.85663 16.94586 5150 ft 242 kts 329°
2026-05-04 20:33 47.87154 16.93454 4760 ft 240 kts 328°
2026-05-04 20:34 47.88632 16.92322 4358 ft 238 kts 328°
2026-05-04 20:34 47.90105 16.91190 3961 ft 238 kts 328°
2026-05-04 20:34 47.91602 16.90036 3914 ft 244 kts 328°
2026-05-04 20:34 47.93116 16.88875 4405 ft 245 kts 328°
2026-05-04 20:35 47.94619 16.87725 4804 ft 241 kts 328°
2026-05-04 20:35 47.96120 16.86573 4923 ft 242 kts 329°
2026-05-04 20:35 47.97612 16.85429 4942 ft 241 kts 329°
2026-05-04 20:35 47.99134 16.84256 4944 ft 252 kts 329°
2026-05-04 20:36 48.00691 16.83059 4940 ft 251 kts 329°
2026-05-04 20:36 48.02245 16.81867 4940 ft 252 kts 329°
2026-05-04 20:36 48.03809 16.80667 4941 ft 253 kts 329°
2026-05-04 20:36 48.05373 16.79465 4941 ft 253 kts 329°
2026-05-04 20:37 48.06938 16.78262 4938 ft 253 kts 329°
2026-05-04 20:37 48.08503 16.77057 4940 ft 253 kts 329°
2026-05-04 20:37 48.10045 16.75867 4940 ft 254 kts 329°
2026-05-04 20:37 48.11615 16.74654 4942 ft 253 kts 330°
2026-05-04 20:38 48.13172 16.73453 4942 ft 251 kts 330°
2026-05-04 20:38 48.14729 16.72252 4938 ft 252 kts 330°
2026-05-04 20:38 48.16290 16.71046 4939 ft 253 kts 330°
2026-05-04 20:38 48.17851 16.69840 4940 ft 253 kts 330°
2026-05-04 20:39 48.19438 16.68610 4938 ft 260 kts 330°
2026-05-04 20:39 48.21042 16.67368 4939 ft 258 kts 330°
2026-05-04 20:39 48.22677 16.66246 4937 ft 259 kts 340°
2026-05-04 20:39 48.26665 16.64583 4939 ft 260 kts 342°
2026-05-04 20:40 48.33607 16.61655 4934 ft 259 kts 343°
2026-05-04 20:40 48.40550 16.58727 4929 ft 259 kts 343°
2026-05-04 20:40 48.47497 16.55787 4925 ft 259 kts 343°
2026-05-04 20:40 48.53604 16.51022 4932 ft 251 kts 287°
2026-05-04 20:41 48.51228 16.42410 4935 ft 239 kts 195°
2026-05-04 20:41 48.44740 16.43951 4922 ft 237 kts 165°
2026-05-04 20:41 48.39027 16.46365 4908 ft 164 kts 165°
2026-05-04 20:41 48.36722 16.47337 4930 ft 153 kts 166°
2026-05-04 20:42 48.35724 16.47760 4928 ft 147 kts 166°
2026-05-04 20:42 48.34739 16.48176 4931 ft 147 kts 165°
2026-05-04 20:42 48.33654 16.48634 4920 ft 182 kts 165°
2026-05-04 20:42 48.32307 16.49203 4735 ft 218 kts 165°
2026-05-04 20:43 48.27328 16.51317 3707 ft 183 kts 167°
2026-05-04 20:43 48.23084 16.53111 2900 ft 148 kts 168°
2026-05-04 20:43 48.19272 16.54724 2151 ft 140 kts 167°
2026-05-04 20:43 48.17027 16.55675 1718 ft 140 kts 166°
2026-05-04 20:44 48.16078 16.56077 1527 ft 141 kts 166°
2026-05-04 20:44 48.15109 16.56489 1325 ft 149 kts 165°
2026-05-04 20:44 48.14108 16.56910 1126 ft 149 kts 163°
2026-05-04 20:44 48.13113 16.57331 928 ft 149 kts 162°
2026-05-04 20:45 48.12118 16.57757 676 ft 145 kts 163°
2026-05-04 20:45 48.11241 16.58132 619 ft 89 kts 164°
2026-05-04 20:45 48.10932 16.58259 613 ft 31 kts 164°
2026-05-04 20:45 48.10751 16.58284 602 ft 23 kts 186°
2026-05-04 20:46 48.10618 16.58246 600 ft 16 kts 195°
2026-05-04 20:46 48.10586 16.58234 601 ft 0 kts 195°
2026-05-04 20:46 48.10587 16.58234 601 ft 0 kts 195°
2026-05-04 20:46 48.10585 16.58233 601 ft 1 kts 195°
2026-05-04 20:48 48.10564 16.58224 601 ft 7 kts 195°
2026-05-04 20:48 48.10502 16.58191 603 ft 11 kts 214°
2026-05-04 20:49 48.10468 16.58087 611 ft 12 kts 271°
2026-05-04 20:49 48.10525 16.58013 618 ft 13 kts 347°
2026-05-04 20:49 48.10619 16.57973 611 ft 15 kts 342°
2026-05-04 20:49 48.10730 16.57924 617 ft 19 kts 343°
2026-05-04 20:50 48.10869 16.57863 613 ft 23 kts 352°
2026-05-04 20:50 48.11031 16.57798 614 ft 26 kts 344°
2026-05-04 20:50 48.11160 16.57744 613 ft 0 kts 343°
2026-05-04 20:51 48.11162 16.57743 614 ft 1 kts 343°
2026-05-04 20:51 48.11183 16.57733 610 ft 5 kts 343°
2026-05-04 20:51 48.11231 16.57714 610 ft 9 kts 347°
2026-05-04 20:51 48.11253 16.57681 616 ft 1 kts 241°
2026-05-04 20:52 48.11247 16.57675 612 ft 3 kts 223°
2026-05-04 20:52 48.11214 16.57625 618 ft 11 kts 248°
2026-05-04 20:52 48.11236 16.57490 611 ft 16 kts 296°
2026-05-04 20:52 48.11301 16.57343 614 ft 14 kts 338°
2026-05-04 20:53 48.11331 16.57353 618 ft 4 kts 22°
2026-05-04 20:53 48.11370 16.57377 614 ft 9 kts 22°
2026-05-04 20:53 48.11440 16.57352 612 ft 14 kts 299°
2026-05-04 20:53 48.11481 16.57195 614 ft 19 kts 291°
2026-05-04 20:54 48.11549 16.57008 602 ft 19 kts 295°
2026-05-04 20:54 48.11595 16.56868 601 ft 6 kts 296°
2026-05-04 20:54 48.11620 16.56796 600 ft 11 kts 296°
2026-05-04 20:54 48.11655 16.56695 598 ft 0 kts 313°
2026-05-04 20:55 48.11658 16.56694 598 ft 1 kts 337°
2026-05-04 20:55 48.11669 16.56678 598 ft 4 kts 316°
2026-05-04 20:56 48.11711 16.56661 597 ft 8 kts
2026-05-04 20:56 48.11741 16.56677 598 ft 0 kts 24°